sat.trackr.live / text

‹ back to catalog

STARLINK-30566

NORAD 58054 · 2023-158D

PAYLOAD ACTIVE UNKNOWN

§ Identity

Operator
Country
US
Launch date
2023-10-13
Launch site
AFETR
Launch vehicle
Mass (kg)
RCS (m²)

Purposes: comms

External: N2YO · Heavens-Above · Gunter

§ Orbital elements

Epoch: 2026-05-24T21:01:48.807840Z

Period
94.27 min
Inclination
43.0026°
Eccentricity
0.0002038
Mean motion
15.27597073 rev/d
Perigee alt
481.6 km
Apogee alt
484.4 km
Semi-major
6,861.1 km
B*
2.9485e-3
RAAN
316.6285°
Arg perigee
248.6714°
Mean anomaly
111.3920°
Rev number
14,522

§ Raw data

STARLINK-305661 58054U 23158D   26144.87625935  .00081822  00000+0  29485-2 0  99932 58054  43.0026 316.6285 0002038 248.6714 111.3920 15.27597073145222

JSON: /api/v1/satellites/58054 · /tle

For live sub-satellite position, see the globe view (requires WebGL).

§ Visibility from observer

Set your observer location to see the next 7 days of passes ≥ 10°. The values pass through the URL so the page stays shareable.

No JS? Fill the form by hand. The geolocation button needs JavaScript.